FW1981 Weather Reports


Display with metric or nautical units.
time (UTC)temp
F
wind
direction
speed
MPH
gust
MPH
rain 1hr
in
rain 24hr
in
rain mn
in
humidity
%
barometer
mb
20260901022016 57 336 0.0 0.0 0.00 0.16 0.16 83 1018.3
20260901021524 58 336 0.0 0.0 0.00 0.16 0.16 82 1018.3
20260901021022 58 336 0.0 0.0 0.00 0.16 0.16 82 1018.3
20260901020520 59 336 0.0 0.0 0.00 0.16 0.16 81 1018.3
20260901020019 59 336 0.0 1.0 0.00 0.16 0.16 80 1018.2
20260901015516 60 336 0.0 1.0 0.00 0.18 0.16 80 1018.2
20260901015024 60 336 0.0 1.0 0.00 0.18 0.16 80 1018.2
20260901014533 60 336 0.0 1.0 0.00 0.18 0.16 80 1018.2
20260901014020 60 338 1.0 1.0 0.00 0.18 0.16 81 1018.2
20260901013519 60 339 0.0 1.0 0.00 0.18 0.16 80 1018.2
20260901013027 60 326 0.0 1.0 0.00 0.18 0.16 80 1018.3
20260901012524 60 309 0.0 1.0 0.00 0.18 0.16 81 1018.3
20260901012023 60 309 0.0 0.0 0.00 0.18 0.16 81 1018.3
20260901011521 60 309 0.0 0.0 0.00 0.18 0.16 80 1018.3
20260901011018 60 309 0.0 0.0 0.00 0.18 0.16 80 1018.3
20260901010516 60 309 0.0 1.0 0.00 0.18 0.16 80 1018.2
20260901010035 60 309 0.0 1.0 0.00 0.18 0.16 80 1018.2
20260901005523 60 309 0.0 1.0 0.00 0.18 0.16 80 1018.0
20260901005020 60 309 0.0 2.0 0.00 0.18 0.16 80 1018.0
20260901004518 61 309 0.0 2.0 0.00 0.18 0.16 80 1018.1
20260901004027 61 326 0.0 2.0 0.00 0.18 0.16 80 1018.1
20260901001021 61 339 0.0 2.0 0.00 0.18 0.16 77 1017.7
20260901000519 61 307 1.0 2.0 0.00 0.18 0.16 77 1017.8
20260901000028 61 300 1.0 2.0 0.00 0.18 0.16 77 1017.7
20260831233521 62 300 0.0 2.0 0.00 0.18 0.16 74 1017.3
20260831233019 62 295 1.0 3.0 0.00 0.18 0.16 74 1017.3
20260831232527 62 296 1.0 3.0 0.00 0.18 0.16 74 1017.3
20260831231517 63 290 0.0 2.0 0.00 0.18 0.16 73 1017.2
20260831225027 64 319 2.0 4.0 0.00 0.18 0.16 71 1016.9
20260831224023 65 312 2.0 4.0 0.00 0.18 0.16 69 1016.6
20260831223532 65 314 2.0 5.0 0.00 0.18 0.16 69 1016.7
20260831223020 65 309 3.0 5.0 0.00 0.18 0.16 68 1016.8
20260831222517 66 320 2.0 8.0 0.00 0.18 0.16 68 1016.8
20260831220527 67 306 5.0 9.0 0.00 0.18 0.16 65 1016.6
20260831215521 67 324 4.0 8.0 0.00 0.18 0.16 65 1016.4
20260831215018 67 318 5.0 8.0 0.00 0.18 0.16 65 1016.3
20260831214516 68 295 3.0 7.0 0.00 0.18 0.16 65 1016.3
20260831214029 68 309 3.0 11.0 0.00 0.18 0.16 64 1016.2
20260831213521 68 328 5.0 12.0 0.00 0.18 0.16 63 1016.2
20260831213019 68 323 6.0 13.0 0.00 0.18 0.16 63 1016.2
20260831212517 68 306 7.0 13.0 0.00 0.18 0.16 63 1016.1
20260831212024 68 278 4.0 9.0 0.00 0.18 0.16 63 1016.1
20260831211524 69 349 5.0 9.0 0.00 0.18 0.16 63 1016.0
20260831211022 69 326 6.0 11.0 0.00 0.18 0.16 62 1015.9
20260831210519 68 315 6.0 14.0 0.00 0.18 0.16 62 1015.9
20260831210025 69 320 8.0 14.0 0.00 0.18 0.16 62 1015.8
20260831205523 68 288 3.0 9.0 0.00 0.18 0.16 64 1015.8
20260831205034 68 290 3.0 5.0 0.00 0.18 0.16 64 1015.9
20260831204521 68 304 3.0 6.0 0.00 0.18 0.16 64 1015.8
20260831204019 68 345 2.0 8.0 0.00 0.18 0.16 62 1015.8
20260831203516 69 338 4.0 8.0 0.00 0.18 0.16 61 1015.8
20260831203035 69 330 3.0 8.0 0.00 0.18 0.16 62 1015.8
20260831202523 68 326 4.0 8.0 0.00 0.18 0.16 62 1015.8
20260831202024 69 338 4.0 10.0 0.00 0.18 0.16 61 1015.7
20260831201528 69 326 4.0 10.0 0.00 0.18 0.16 61 1015.7
20260831201029 69 322 7.0 10.0 0.00 0.18 0.16 59 1015.6
20260831200523 70 266 6.0 11.0 0.00 0.18 0.16 59 1015.6
20260831200022 70 325 7.0 12.0 0.00 0.18 0.16 58 1015.6
20260831195521 71 311 8.0 12.0 0.00 0.18 0.16 57 1015.5
20260831195027 70 328 4.0 12.0 0.00 0.18 0.16 58 1015.4
20260831194524 71 312 6.0 12.0 0.00 0.18 0.16 56 1015.4
20260831194023 71 9 6.0 13.0 0.00 0.18 0.16 58 1015.3
20260831193532 71 347 6.0 13.0 0.00 0.18 0.16 58 1015.3
20260831193019 71 352 7.0 13.0 0.00 0.18 0.16 57 1015.2
20260831192517 70 338 5.0 12.0 0.00 0.18 0.16 57 1015.2
20260831192024 70 314 7.0 12.0 0.00 0.18 0.16 57 1015.0
20260831191524 71 349 6.0 11.0 0.00 0.18 0.16 58 1015.1
20260831191023 71 320 6.0 11.0 0.00 0.18 0.16 56 1015.0
20260831190521 71 350 6.0 11.0 0.00 0.18 0.16 57 1015.0
20260831190030 70 311 6.0 11.0 0.00 0.18 0.16 56 1014.9
20260831185517 70 335 7.0 15.0 0.00 0.18 0.16 57 1014.9
20260831185024 71 334 5.0 15.0 0.00 0.18 0.16 56 1014.8
20260831184523 71 327 5.0 14.0 0.00 0.18 0.16 58 1014.8
20260831184023 71 320 8.0 15.0 0.00 0.18 0.16 57 1014.8
20260831183530 71 27 5.0 13.0 0.00 0.18 0.16 56 1014.7
20260831183017 71 332 6.0 13.0 0.00 0.18 0.16 57 1014.6
20260831182524 71 48 5.0 9.0 0.00 0.18 0.16 58 1014.6
20260831182023 70 296 4.0 12.0 0.00 0.18 0.16 58 1014.5
20260831181521 71 325 4.0 11.0 0.00 0.18 0.16 58 1014.6
20260831181019 70 8 5.0 12.0 0.00 0.18 0.16 59 1014.6
20260831180516 71 1 4.0 12.0 0.00 0.18 0.16 57 1014.7
20260831180024 71 314 6.0 12.0 0.00 0.18 0.16 57 1014.6
20260831175523 71 335 5.0 11.0 0.00 0.18 0.16 57 1014.6
20260831175027 71 286 6.0 13.0 0.00 0.18 0.16 58 1014.5
20260831174519 71 315 5.0 13.0 0.00 0.18 0.16 58 1014.6
20260831174021 71 345 7.0 13.0 0.00 0.18 0.16 55 1014.5
20260831173524 71 243 6.0 11.0 0.00 0.18 0.16 55 1014.6
20260831173028 71 311 3.0 12.0 0.00 0.18 0.16 57 1014.5
20260831172521 70 304 6.0 12.0 0.00 0.18 0.16 57 1014.5
20260831172022 70 313 5.0 12.0 0.00 0.18 0.16 57 1014.6
20260831171517 70 327 6.0 12.0 0.00 0.18 0.16 56 1014.5
20260831171024 71 334 4.0 10.0 0.00 0.18 0.16 58 1014.5
20260831170523 70 309 5.0 11.0 0.00 0.18 0.16 58 1014.4
20260831170022 71 343 6.0 11.0 0.00 0.18 0.16 56 1014.5
20260831165521 71 268 4.0 11.0 0.00 0.18 0.16 56 1014.4
20260831165019 71 330 6.0 11.0 0.00 0.18 0.16 55 1014.5
20260831164518 71 308 6.0 11.0 0.00 0.18 0.16 55 1014.4
20260831164026 71 342 6.0 19.0 0.00 0.18 0.16 57 1014.4
20260831163523 71 272 7.0 19.0 0.00 0.18 0.16 55 1014.4
20260831163022 71 326 6.0 13.0 0.00 0.18 0.16 56 1014.2
20260831162519 71 336 5.0 11.0 0.00 0.18 0.16 57 1014.4
20260831162017 71 304 6.0 11.0 0.00 0.18 0.16 56 1014.4
20260831161537 70 305 4.0 10.0 0.00 0.18 0.16 59 1014.5
20260831161029 70 342 6.0 13.0 0.00 0.18 0.16 58 1014.2
20260831160523 69 330 6.0 13.0 0.00 0.18 0.16 56 1014.3
20260831160022 69 340 7.0 14.0 0.00 0.18 0.16 55 1014.4
20260831155519 69 317 7.0 14.0 0.00 0.18 0.16 55 1014.4
20260831155017 70 303 4.0 14.0 0.00 0.18 0.16 59 1014.3
20260831154524 69 342 7.0 14.0 0.00 0.18 0.16 59 1014.2
20260831154024 69 330 7.0 15.0 0.00 0.18 0.16 57 1014.2
20260831153522 69 297 9.0 15.0 0.00 0.18 0.16 58 1014.3
20260831153021 69 301 8.0 15.0 0.00 0.18 0.16 58 1014.4
20260831152529 69 297 9.0 15.0 0.00 0.18 0.16 58 1014.3
20260831152025 69 338 7.0 12.0 0.00 0.18 0.16 58 1014.3
20260831151524 69 305 5.0 12.0 0.00 0.18 0.16 62 1014.3
20260831151022 68 313 4.0 14.0 0.00 0.18 0.16 63 1014.2
20260831150520 68 298 6.0 14.0 0.00 0.18 0.16 62 1014.2
20260831150018 68 322 6.0 14.0 0.00 0.18 0.16 62 1014.2
20260831145524 68 281 6.0 15.0 0.00 0.18 0.16 63 1014.5
20260831145029 68 330 5.0 15.0 0.00 0.18 0.16 63 1014.6
20260831144527 68 351 9.0 14.0 0.00 0.18 0.16 62 1014.6
20260831144019 67 270 5.0 12.0 0.00 0.18 0.16 66 1014.5
20260831143517 67 340 6.0 12.0 0.00 0.18 0.16 66 1014.5
20260831143025 67 307 5.0 16.0 0.00 0.18 0.16 65 1014.4
20260831142536 67 329 4.0 16.0 0.00 0.18 0.16 67 1014.5
20260831142021 66 323 5.0 14.0 0.00 0.18 0.16 66 1014.3
20260831141520 66 343 7.0 14.0 0.00 0.18 0.16 66 1014.4
20260831141017 66 306 4.0 9.0 0.00 0.18 0.16 70 1014.3
20260831140530 66 294 5.0 12.0 0.00 0.18 0.16 71 1014.3
20260831140025 65 318 7.0 13.0 0.00 0.18 0.16 71 1014.3
20260831135522 65 277 6.0 13.0 0.00 0.18 0.16 71 1014.2
20260831135020 65 321 7.0 13.0 0.00 0.18 0.16 71 1014.1
20260831134518 65 284 7.0 11.0 0.00 0.18 0.16 71 1014.2
20260831134025 65 12 2.0 10.0 0.00 0.18 0.16 74 1014.1
20260831133528 64 323 3.0 13.0 0.00 0.18 0.16 76 1014.1
20260831133020 64 307 6.0 13.0 0.00 0.18 0.16 75 1014.0
20260831132517 63 321 7.0 17.0 0.00 0.18 0.16 75 1014.1
20260831132025 63 338 7.0 17.0 0.00 0.18 0.16 76 1014.2
20260831131524 64 318 7.0 11.0 0.00 0.18 0.16 76 1014.1
20260831131034 63 324 6.0 13.0 0.00 0.18 0.16 78 1014.1
20260831130521 63 310 7.0 15.0 0.00 0.18 0.16 77 1014.0
20260831130031 63 330 8.0 15.0 0.00 0.18 0.16 77 1014.0
20260831125517 63 19 6.0 12.0 0.00 0.18 0.16 79 1013.9
20260831125025 63 329 5.0 12.0 0.00 0.18 0.16 81 1013.9
20260831124524 63 291 6.0 12.0 0.00 0.18 0.16 81 1013.8
20260831124022 62 307 7.0 10.0 0.00 0.18 0.16 82 1013.7
20260831123520 62 323 5.0 10.0 0.00 0.18 0.16 83 1013.7
20260831123028 62 353 6.0 10.0 0.00 0.18 0.16 84 1013.9
20260831122534 62 311 6.0 12.0 0.00 0.18 0.16 85 1013.8
20260831122024 62 333 5.0 12.0 0.00 0.18 0.16 85 1013.8
20260831121523 62 304 5.0 13.0 0.00 0.18 0.16 86 1013.7
20260831121022 62 349 7.0 13.0 0.00 0.18 0.16 85 1013.7
20260831120519 62 293 4.0 11.0 0.00 0.18 0.16 87 1013.8
20260831120017 61 255 5.0 11.0 0.00 0.18 0.16 87 1013.8
20260831115525 61 315 5.0 11.0 0.00 0.18 0.16 88 1013.7
20260831115029 61 326 4.0 11.0 0.00 0.18 0.16 88 1013.8
20260831114524 61 340 6.0 11.0 0.00 0.18 0.16 89 1013.7
20260831114022 61 299 8.0 11.0 0.00 0.18 0.16 89 1013.8
20260831113520 61 320 5.0 8.0 0.00 0.18 0.16 90 1013.8
20260831113017 61 288 3.0 7.0 0.00 0.18 0.16 91 1013.8
20260831112536 61 262 3.0 10.0 0.00 0.18 0.16 91 1013.7
20260831112029 60 299 5.0 10.0 0.00 0.18 0.16 91 1013.6
20260831111523 60 314 4.0 8.0 0.00 0.18 0.16 91 1013.6
20260831111022 60 2 4.0 9.0 0.00 0.18 0.16 92 1013.5
20260831110531 60 293 4.0 9.0 0.00 0.18 0.16 92 1013.5
20260831110018 60 334 6.0 9.0 0.00 0.18 0.16 92 1013.4
20260831105525 59 321 3.0 6.0 0.00 0.18 0.16 93 1013.4
20260831105035 59 326 3.0 5.0 0.00 0.18 0.16 93 1013.2
20260831104525 59 329 2.0 6.0 0.00 0.18 0.16 93 1013.2
20260831104035 58 313 2.0 7.0 0.00 0.18 0.16 93 1013.2
20260831103522 58 309 3.0 7.0 0.00 0.18 0.16 93 1013.2
20260831103022 59 270 2.0 7.0 0.00 0.18 0.16 93 1013.2
20260831102522 59 302 3.0 7.0 0.00 0.18 0.16 93 1013.0
20260831102020 59 300 2.0 10.0 0.00 0.18 0.16 93 1013.1
20260831101518 59 321 4.0 10.0 0.00 0.18 0.16 93 1013.0
20260831101036 59 300 3.0 8.0 0.00 0.18 0.16 93 1012.9
20260831100524 59 302 4.0 8.0 0.00 0.18 0.16 93 1012.8
20260831100022 59 304 2.0 12.0 0.00 0.18 0.16 93 1012.6
20260831095521 59 330 4.0 12.0 0.00 0.18 0.16 93 1012.6
20260831095018 59 295 4.0 8.0 0.00 0.18 0.16 94 1012.5
20260831094525 59 288 3.0 8.0 0.00 0.18 0.16 94 1012.5
20260831094024 59 300 4.0 8.0 0.00 0.18 0.16 94 1012.3
20260831093522 59 322 2.0 5.0 0.00 0.18 0.16 94 1012.2
20260831093020 59 262 1.0 4.0 0.00 0.18 0.16 94 1012.2
20260831092519 60 297 1.0 4.0 0.00 0.18 0.16 94 1012.2
20260831092025 60 311 1.0 4.0 0.00 0.18 0.16 94 1012.1
20260831091526 60 302 1.0 4.0 0.00 0.18 0.16 94 1012.1
20260831091022 60 320 1.0 6.0 0.00 0.18 0.16 94 1012.1
20260831090521 60 289 1.0 4.0 0.00 0.18 0.16 94 1012.2
20260831090029 60 288 1.0 4.0 0.00 0.18 0.16 94 1012.2
20260831085525 60 290 0.0 4.0 0.00 0.18 0.16 94 1012.1
20260831085035 60 271 0.0 3.0 0.00 0.18 0.16 94 1012.1
20260831084524 60 278 1.0 3.0 0.00 0.18 0.16 94 1012.3
20260831084025 60 296 1.0 3.0 0.00 0.18 0.16 94 1012.4
20260831083522 60 315 0.0 4.0 0.00 0.18 0.16 94 1012.3
20260831083020 60 296 1.0 4.0 0.00 0.18 0.16 94 1012.1
20260831082518 60 306 1.0 3.0 0.01 0.18 0.16 94 1011.7
20260831082036 60 219 0.0 1.0 0.01 0.18 0.16 94 1012.2
20260831081524 60 299 0.0 4.0 0.01 0.18 0.16 94 1012.3
20260831081024 60 255 1.0 4.0 0.01 0.18 0.16 94 1012.2
20260831080524 60 304 1.0 5.0 0.01 0.18 0.16 94 1011.8
20260831080024 60 333 2.0 5.0 0.01 0.18 0.16 94 1012.1
20260831075524 60 305 2.0 2.0 0.01 0.18 0.16 94 1012.0
20260831075024 60 333 0.0 1.0 0.01 0.18 0.16 94 1012.0
20260831074534 60 314 0.0 1.0 0.01 0.18 0.16 94 1012.0
20260831074020 60 314 0.0 0.0 0.01 0.18 0.16 94 1011.4
20260831073518 60 314 0.0 1.0 0.01 0.18 0.16 94 1011.7
20260831073025 60 314 0.0 1.0 0.01 0.18 0.16 94 1011.8
20260831072536 60 314 0.0 1.0 0.00 0.17 0.15 94 1011.9
20260831072024 60 314 0.0 3.0 0.00 0.17 0.15 94 1012.2
20260831071534 60 281 0.0 3.0 0.00 0.17 0.15 93 1012.3
20260831071022 60 304 1.0 4.0 0.00 0.17 0.15 93 1012.4
20260831070522 61 271 2.0 5.0 0.00 0.17 0.15 93 1012.3
20260831070034 61 334 1.0 4.0 0.00 0.17 0.15 93 1012.0
20260831065533 61 306 1.0 2.0 0.00 0.17 0.15 93 1011.7
20260831065022 61 304 0.0 0.0 0.01 0.17 0.15 93 1011.2
20260831064522 61 304 0.0 0.0 0.01 0.17 0.15 93 1011.0
20260831064033 61 304 0.0 0.0 0.01 0.17 0.15 93 1011.0
20260831063531 61 304 0.0 0.0 0.01 0.17 0.15 93 1011.0
20260831063020 61 304 0.0 1.0 0.01 0.17 0.15 93 1011.1
20260831062520 61 304 0.0 2.0 0.01 0.17 0.15 93 1011.2
20260831062022 61 304 0.0 4.0 0.02 0.17 0.15 93 1011.2
20260831061523 61 318 1.0 5.0 0.02 0.17 0.15 93 1011.2
20260831061018 61 308 2.0 5.0 0.02 0.17 0.15 93 1011.3
20260831060525 62 283 2.0 7.0 0.02 0.17 0.15 92 1011.3
20260831060026 62 295 3.0 7.0 0.02 0.17 0.15 92 1011.3
20260831055522 62 319 3.0 8.0 0.02 0.17 0.15 93 1011.4
20260831055022 63 324 3.0 4.0 0.02 0.16 0.14 94 1011.6
20260831054523 63 306 1.0 4.0 0.04 0.16 0.14 94 1011.7
20260831054033 63 292 1.0 2.0 0.05 0.16 0.14 94 1011.7
20260831053522 63 274 0.0 1.0 0.07 0.16 0.14 93 1011.7
20260831053033 63 290 0.0 1.0 0.09 0.16 0.14 93 1011.8
20260831052524 63 313 0.0 3.0 0.12 0.16 0.14 93 1011.8
20260831052023 63 237 0.0 3.0 0.13 0.15 0.13 93 1012.1
20260831051523 63 244 0.0 0.0 0.13 0.15 0.13 93 1012.1
20260831051023 63 242 0.0 0.0 0.13 0.15 0.13 93 1011.9
20260831050521 63 240 0.0 0.0 0.13 0.15 0.13 93 1011.9
20260831050031 63 240 0.0 2.0 0.13 0.15 0.13 93 1011.8
20260831045531 63 230 1.0 2.0 0.13 0.15 0.13 93 1011.9
20260831045020 63 296 0.0 4.0 0.12 0.14 0.12 92 1011.8
20260831044522 64 233 1.0 4.0 0.10 0.12 0.10 92 1012.5
20260831044021 64 233 0.0 4.0 0.08 0.10 0.08 92 1012.6
20260831043531 64 260 0.0 4.0 0.06 0.08 0.06 92 1012.4
20260831043021 64 292 1.0 3.0 0.04 0.06 0.04 92 1012.4
20260831042520 64 217 1.0 6.0 0.02 0.04 0.02 92 1012.4
20260831042025 64 153 2.0 7.0 0.00 0.02 0.00 92 1012.5
20260831041521 64 238 1.0 4.0 0.00 0.02 0.00 91 1012.2
20260831041020 64 216 2.0 4.0 0.00 0.02 0.00 91 1012.0
20260831040531 64 297 1.0 4.0 0.00 0.02 0.00 91 1012.0
20260831040020 64 287 2.0 7.0 0.00 0.02 0.00 91 1012.1
20260831035532 64 257 2.0 8.0 0.00 0.02 0.00 91 1012.2
20260831035031 64 212 3.0 8.0 0.00 0.02 0.00 91 1012.1
20260831034532 64 215 2.0 11.0 0.00 0.02 0.00 91 1012.2
20260831034021 64 44 1.0 6.0 0.00 0.02 0.00 91 1012.1
20260831033520 64 108 1.0 6.0 0.00 0.02 0.00 91 1012.1
20260831033032 64 248 2.0 6.0 0.00 0.02 0.00 91 1012.0
20260831032531 64 329 1.0 4.0 0.00 0.02 0.00 91 1012.0
20260831032031 64 122 1.0 6.0 0.00 0.02 0.00 91 1012.1
20260831031521 64 257 1.0 5.0 0.00 0.02 0.00 91 1012.1
20260831031033 64 239 2.0 7.0 0.00 0.02 0.00 91 1012.1
20260831030520 64 212 2.0 7.0 0.00 0.02 0.00 91 1012.3
20260831030019 64 270 2.0 9.0 0.00 0.02 0.00 91 1012.3
20260831025518 64 299 1.0 9.0 0.00 0.02 0.02 91 1012.2
20260831025029 64 300 1.0 11.0 0.00 0.02 0.02 91 1012.3
20260831024518 64 250 2.0 11.0 0.00 0.02 0.02 91 1012.5
20260831024030 65 240 2.0 8.0 0.00 0.02 0.02 91 1012.5
20260831023518 65 231 2.0 8.0 0.00 0.02 0.02 91 1012.8
20260831023019 65 269 2.0 8.0 0.00 0.02 0.02 91 1012.8
20260831022519 65 205 2.0 8.0 0.01 0.02 0.02 91 1013.0